User: anonymous   Login
Location: Unspecified
(0.0000°N, 0.0000°E)
Time: 13:03:23
(UTC+00:00)
Language:

SO-67 - Orbit

View from above orbital plane
View from above orbital plane
View from above satellite
View from above satellite

Ground track
Ground track

The orbit data is extracted from the following two-line orbital elements,

1 35870U 09049F   21340.06637031  .00939867  21820-5  39037-3 0  9996
2 35870  96.9377  19.4627 0002241 188.4287 226.9288 16.23200189688755
Epoch (UTC): 06 December 2021 01:35:34
Eccentricity: 0.0002241
inclination: 96.9377°
perigee height: 209 km
apogee height: 212 km
right ascension of ascending node: 19.4627°
argument of perigee: 188.4287°
revolutions per day: 16.23200189
mean anomaly at epoch: 226.9288°
orbit number at epoch: 68875

The dashed part of the orbit path shows where the satellite is in the earth's shadow,  

DLR